Weather History for Karlovy Vary, Czech Republic

Change the Weather History Date:

Thursday, February 21, 2013

  Actual Average (EDQM) Record (EDQM)
Temperature  
Mean Temperature 16 °F -  
Max Temperature 23 °F 35 °F 55 °F (1998)
Min Temperature 10 °F 26 °F 6 °F (2011)
Degree Days  
Heating Degree Days 48    
Moisture  
Dew Point 15 °F    
Average Humidity 84    
Maximum Humidity 93    
Minimum Humidity 68    
Precipitation  
Precipitation 0.00 in - - ()
Sea Level Pressure  
Sea Level Pressure 30.01 in    
Wind  
Wind Speed 4 mph ()    
Max Wind Speed 9 mph    
Max Gust Speed -    
Visibility 5.3 miles    
Events Snow    
Averages and records for this station are not official NWS values.
T = Trace of Precipitation, MM = Missing Value Source: Averaged Metar Reports

Daily Weather History Graph

Daily Weather History Graph

Search for Another Location

Airport:

Trip Planner

Search our weather history database for the weather conditions in past years. The results will help you decide how hot, cold, wet, or windy it might be!

Date:

Astronomy

Feb. 21, 2013 Rise Set
Actual Time 7:07 AM CET 5:36 PM CET
Civil Twilight 6:34 AM CET 6:09 PM CET
Nautical Twilight 5:57 AM CET 6:47 PM CET
Astronomical Twilight 5:19 AM CET 7:25 PM CET
Moon 1:19 PM CET (2/21) 4:17 AM CET (2/21)
Length of Visible Light 11h 35m
Length of Day
10h 28m
Waxing Gibbous, 82% of the Moon is Illuminated
Feb 21
Waxing Gibbous
Feb 25
Full
Mar 4
Last Quarter
Mar 11
New
Mar 19
First Quarter

Hourly Weather History & Observations

Time (CET) Temp. Windchill Dew Point Humidity Pressure Visibility Wind Dir Wind Speed Gust Speed Precip Events Conditions
12:00 AM 21.2 °F 14.9 °F 17.6 °F 86% 30.04 in 6.2 mi NW 4.6 mph - N/A   Mostly Cloudy
1:00 AM 21.2 °F 16.4 °F 17.6 °F 86% 30.04 in 4.3 mi NW 3.5 mph - N/A Snow Light Snow Showers
2:00 AM 19.4 °F 14.3 °F 17.6 °F 93% 30.04 in 5.0 mi NNW 3.5 mph - N/A Snow Light Snow Showers
3:00 AM 19.4 °F - 17.6 °F 93% 30.04 in 6.2 mi WNW 1.2 mph - N/A Snow Light Snow Showers
4:00 AM 17.6 °F - 15.8 °F 93% 30.04 in 6.2 mi ESE 1.2 mph - N/A Snow Light Snow Showers
5:00 AM 17.6 °F - 15.8 °F 93% 30.04 in 6.2 mi Calm Calm - N/A   Scattered Clouds
6:00 AM 12.2 °F - 10.4 °F 92% 30.01 in 6.2 mi Calm Calm - N/A   Scattered Clouds
7:00 AM 12.2 °F - 8.6 °F 85% 30.01 in 6.2 mi Variable 1.2 mph - N/A   Scattered Clouds
7:30 AM 10.4 °F 2.2 °F 8.6 °F 92% 30.01 in 6.2 mi East 4.6 mph - N/A   Scattered Clouds
8:00 AM 12.2 °F 6.1 °F 8.6 °F 85% 30.04 in 6.2 mi East 3.5 mph - N/A   Scattered Clouds
8:30 AM 14.0 °F - 12.2 °F 93% 30.04 in 6.2 mi Calm Calm - N/A Snow Light Snow Showers
8:40 AM 15.8 °F - 14.0 °F 93% 30.04 in 1.4 mi Variable 1.2 mph - N/A Snow Light Snow Showers
9:00 AM 17.6 °F - 14.0 °F 86% 30.04 in - Variable 2.3 mph - N/A Snow Light Snow Showers
9:30 AM 19.4 °F 11.5 °F 15.8 °F 86% 30.04 in 6.2 mi NE 5.8 mph - N/A Snow Light Snow Showers
10:00 AM 19.4 °F 9.5 °F 15.8 °F 86% 30.04 in 6.2 mi NE 8.1 mph - N/A   Scattered Clouds
10:30 AM 21.2 °F 14.9 °F 12.2 °F 68% 30.04 in 6.2 mi NNE 4.6 mph - N/A   Scattered Clouds
11:00 AM 21.2 °F 13.6 °F 12.2 °F 68% 30.04 in 6.2 mi NNE 5.8 mph - N/A   Scattered Clouds
11:30 AM 21.2 °F 13.6 °F 14.0 °F 74% 30.04 in 6.2 mi North 5.8 mph - N/A Snow Light Snow Showers
12:00 PM 21.2 °F 13.6 °F 14.0 °F 74% 30.04 in 6.2 mi NNW 5.8 mph - N/A Snow Light Snow Showers
12:30 PM 21.2 °F 14.9 °F 14.0 °F 74% 30.04 in 6.2 mi NNE 4.6 mph - N/A Snow Light Snow Showers
1:00 PM 21.2 °F 14.9 °F 14.0 °F 74% 30.01 in 4.3 mi NE 4.6 mph - N/A Snow Light Snow Showers
1:30 PM 21.2 °F 14.9 °F 15.8 °F 80% 30.01 in 4.3 mi NE 4.6 mph - N/A Snow Light Snow Showers
2:00 PM 23.0 °F 18.4 °F 15.8 °F 74% 30.01 in 6.2 mi ESE 3.5 mph - N/A Snow Light Snow Showers
2:30 PM 23.0 °F 14.7 °F 14.0 °F 68% 29.98 in 6.2 mi ENE 6.9 mph - N/A Snow Light Snow Showers
3:00 PM 21.2 °F 14.9 °F 14.0 °F 74% 29.98 in 6.2 mi NE 4.6 mph - N/A Snow Light Snow Showers
3:16 PM 21.2 °F 10.9 °F 14.0 °F 74% 29.98 in 4.3 mi NNE 9.2 mph - N/A Snow Light Snow Showers
3:30 PM 21.2 °F 11.7 °F 15.8 °F 80% 29.98 in 6.2 mi NE 8.1 mph - N/A Snow Light Snow Showers
4:00 PM 21.2 °F 14.9 °F 15.8 °F 80% 29.98 in 3.1 mi NE 4.6 mph - N/A Snow Light Snow Showers
4:30 PM 21.2 °F 13.6 °F 17.6 °F 86% 29.98 in 6.2 mi NE 5.8 mph - N/A   Mostly Cloudy
4:41 PM 19.4 °F 11.5 °F 15.8 °F 86% 29.98 in 3.1 mi NNE 5.8 mph - N/A Snow Light Snow Showers
5:00 PM 19.4 °F 12.8 °F 17.6 °F 93% 29.98 in 3.1 mi NE 4.6 mph - N/A Snow Light Snow Showers
5:30 PM 19.4 °F 12.8 °F 17.6 °F 93% 29.98 in 6.2 mi NE 4.6 mph - N/A Snow Light Snow
6:00 PM 19.4 °F 14.3 °F 15.8 °F 86% 29.98 in 3.1 mi NNE 3.5 mph - N/A Snow Light Snow
6:30 PM 19.4 °F 12.8 °F 15.8 °F 86% 29.98 in 4.3 mi NE 4.6 mph - N/A Snow Light Snow
7:00 PM 19.4 °F 11.5 °F 15.8 °F 86% 29.98 in 4.3 mi NNE 5.8 mph - N/A Snow Light Snow
7:30 PM 19.4 °F 11.5 °F 15.8 °F 86% 29.98 in 6.2 mi NE 5.8 mph - N/A Snow Light Snow
8:00 PM 19.4 °F 11.5 °F 15.8 °F 86% 29.98 in 6.2 mi NE 5.8 mph - N/A Snow Light Snow
9:00 PM 19.4 °F 12.8 °F 14.0 °F 80% 29.98 in 6.2 mi NE 4.6 mph - N/A Snow Light Snow
10:00 PM 17.6 °F 9.3 °F 14.0 °F 86% 29.98 in 3.7 mi NNE 5.8 mph - N/A Snow Light Snow
11:00 PM 17.6 °F 8.2 °F 14.0 °F 86% 29.98 in 5.0 mi NE 6.9 mph - N/A Snow Light Snow